INTELSAT 33E DEB, 61990

Orbit data source: Space-Track

INTELSAT 33E DEB, 61990 is space debris in GEO originally from a launch on Wed, 24 Aug 2016 UTC launched from the French Guiana (FRGUI). Debris objects in space refer to the collection of defunct objects orbiting the Earth. Examples of debris include non-operational satellites, rocket bodies, and fragments generated from explosions, collisions, or faulty payload assembly.

Not visible in the next 10 days
Identifier
61990, 2016-053G
Orbit
GEO
Last TLE update
3 days ago
Origin
Manufacturer
Boeing/ES
Mission
Spacecraft
Bus & Motor
Unknown
Mass
Unknown
Launch date (UTC)
2016-08-24 (9 years ago)
Launch vehicle
Unknown
Launch site
French Guiana (FRGUI)
Object type
Payload
Rocket body
Debris
Shape & HBR
Unknown
Radar Cross Section
RCS unknown

Expand to show TLE details & history

TLE from 3 days ago
0 INTELSAT 33E DEB
1 61990U 16053G   25107.28083300 -.00000079  00000-0  00000-0 0  9996
2 61990   0.4158  59.7801 0161354 315.5971 345.1202  1.01384454  1835
Epoch: 2025-04-17T06:44Z
Definitive object data (Epoch: 2025-04-17T06:44:23.971Z)
Latitude
-0.34117°
Longitude
53.24569°
Altitude
34,822.908 km
Speed
3.135 km/s
True Right ascension
00h 00m 00s
True Declination
0° 20' 27"
Sunlit
Object was in daylight at TLE epoch
Visualization TLE readout
Latitude
-0.27176°
Longitude
-24.79768°
Altitude
35,508.342 km
Speed
3.084 km/s
Apparent Right ascension
18h 52m 49s
Apparent Declination
-5° 13' 29"
Sunlit
Object is in daylight
Visualization observer readout
Local Sidereal Time
07:35:45
Azimuth
18.386° NNE
Elevation
-53.985°
Doppler factor
1
Orbital elements
Apogee altitude
36,153.983 km
Perigee altitude
34,803.233 km
Semi-major axis
41,856.745 km
Eccentricity
0.0161354
Inclination
0.4158°
RAAN
59.7801°
Arg. of periapsis
315.5971°
True anomaly
344.63597°
Mean anomaly
345.1202°
Eccentric anomaly
344.87904°
Mean motion
0.25345 °/min
BSTAR
Unknown
Orbital period
1420.39 mins
Loading historical data...
61990 neighbors
Loading maneuver chart data...
Loading SW <> Apogee altitude chart data...
Loading historical data...
Loading historical data...
Loading historical data...
Loading historical data...
Loading historical data...
Loading historical data...
Loading historical data...

INTELSAT 33E DEB Visibility forecast

Observer location: undefined°, undefined°

INTELSAT 33E DEB is not visible in the next 10 days
Span
Click to sort rows by Start time (UTC) header in descending order
Start Az.
Max El. time (UTC)
Max El. Az.
Max El.
End time (UTC)
End Az.
|